| time (UTC) | temp F | wind direction | speed MPH | gust MPH | rain 1hr in | rain 24hr in | rain mn in | humidity % | barometer mb |
| 20260506001601 | 54 | 0.0 | 4.0 | 0.00 | 0.35 | 0.00 | 64 | 1007.9 | |
| 20260506000053 | 54 | 0.0 | 6.0 | 0.00 | 0.35 | 0.00 | 63 | 1007.6 | |
| 20260505234554 | 54 | 0.0 | 7.0 | 0.00 | 0.35 | 0.00 | 63 | 1007.7 | |
| 20260505233051 | 54 | 0.0 | 5.0 | 0.00 | 0.35 | 0.00 | 63 | 1007.4 | |
| 20260505231601 | 54 | 0.0 | 7.0 | 0.00 | 0.35 | 0.00 | 62 | 1007.7 | |
| 20260505230058 | 54 | 0.0 | 8.0 | 0.00 | 0.35 | 0.00 | 62 | 1007.9 | |
| 20260505224552 | 54 | 0.0 | 8.0 | 0.00 | 0.35 | 0.00 | 65 | 1008.0 | |
| 20260505223050 | 54 | 0.0 | 5.0 | 0.00 | 0.35 | 0.00 | 69 | 1008.1 | |
| 20260505221550 | 54 | 0.0 | 7.0 | 0.00 | 0.35 | 0.00 | 67 | 1008.3 | |
| 20260505220049 | 54 | 0.0 | 7.0 | 0.00 | 0.35 | 0.00 | 65 | 1008.4 | |
| 20260505214548 | 54 | 0.0 | 7.0 | 0.00 | 0.35 | 0.00 | 66 | 1008.4 | |
| 20260505213056 | 55 | 0.0 | 6.0 | 0.00 | 0.35 | 0.00 | 63 | 1008.4 | |
| 20260505211551 | 55 | 0.0 | 8.0 | 0.00 | 0.35 | 0.00 | 63 | 1008.4 | |
| 20260505210047 | 56 | 0.0 | 10.0 | 0.00 | 0.35 | 0.00 | 63 | 1008.4 | |
| 20260505204545 | 56 | 0.0 | 9.0 | 0.00 | 0.35 | 0.00 | 63 | 1008.5 | |
| 20260505203047 | 57 | 0.0 | 11.0 | 0.00 | 0.35 | 0.00 | 61 | 1008.5 | |
| 20260505201547 | 57 | 0.0 | 10.0 | 0.00 | 0.35 | 0.00 | 63 | 1008.3 | |
| 20260505200046 | 57 | 0.0 | 12.0 | 0.00 | 0.35 | 0.00 | 65 | 1008.0 | |
| 20260505194546 | 57 | 0.0 | 7.0 | 0.00 | 0.35 | 0.00 | 68 | 1008.1 | |
| 20260505193042 | 57 | 0.0 | 10.0 | 0.00 | 0.35 | 0.00 | 68 | 1008.1 | |
| 20260505191554 | 57 | 0.0 | 4.0 | 0.00 | 0.35 | 0.00 | 72 | 1008.5 | |
| 20260505190042 | 56 | 0.0 | 8.0 | 0.00 | 0.35 | 0.00 | 73 | 1008.5 | |
| 20260505184541 | 56 | 0.0 | 11.0 | 0.00 | 0.35 | 0.00 | 72 | 1008.6 | |
| 20260505183041 | 56 | 0.0 | 11.0 | 0.00 | 0.35 | 0.00 | 70 | 1008.5 | |
| 20260505181539 | 57 | 0.0 | 12.0 | 0.00 | 0.35 | 0.00 | 70 | 1008.5 | |
| 20260505180051 | 57 | 0.0 | 10.0 | 0.00 | 0.35 | 0.00 | 73 | 1008.6 | |
| 20260505174546 | 57 | 0.0 | 9.0 | 0.00 | 0.35 | 0.00 | 71 | 1008.3 | |
| 20260505173036 | 57 | 0.0 | 12.0 | 0.00 | 0.35 | 0.00 | 74 | 1008.5 | |
| 20260505171536 | 56 | 0.0 | 5.0 | 0.00 | 0.35 | 0.00 | 75 | 1008.5 | |
| 20260505170035 | 55 | 0.0 | 10.0 | 0.00 | 0.35 | 0.00 | 76 | 1008.4 | |
| 20260505164540 | 55 | 0.0 | 7.0 | 0.00 | 0.35 | 0.00 | 75 | 1008.5 | |
| 20260505163034 | 54 | 0.0 | 8.0 | 0.00 | 0.35 | 0.00 | 76 | 1008.7 | |
| 20260505161533 | 53 | 0.0 | 8.0 | 0.00 | 0.35 | 0.00 | 81 | 1008.9 | |
| 20260505153033 | 49 | 0.0 | 10.0 | 0.00 | 0.35 | 0.00 | 84 | 1008.3 | |
| 20260505151532 | 48 | 0.0 | 7.0 | 0.00 | 0.35 | 0.00 | 83 | 1008.4 | |
| 20260505124513 | 50 | 0.0 | 9.0 | 0.00 | 0.35 | 0.00 | 74 | 1007.4 | |
| 20260505123022 | 50 | 0.0 | 11.0 | 0.00 | 0.35 | 0.00 | 74 | 1007.5 | |
| 20260505121506 | 51 | 0.0 | 13.0 | 0.00 | 0.35 | 0.00 | 74 | 1007.0 | |
| 20260505120011 | 51 | 0.0 | 13.0 | 0.00 | 0.35 | 0.00 | 74 | 1005.9 | |
| 20260505114501 | 51 | 0.0 | 9.0 | 0.00 | 0.35 | 0.00 | 76 | 1005.8 | |
| 20260505113100 | 51 | 0.0 | 5.0 | 0.00 | 0.35 | 0.00 | 75 | 1005.1 | |
| 20260505111600 | 51 | 0.0 | 5.0 | 0.00 | 0.35 | 0.00 | 76 | 1004.9 | |
| 20260505101605 | 53 | 0.0 | 7.0 | 0.00 | 0.35 | 0.00 | 83 | 1005.4 | |
| 20260505100101 | 54 | 0.0 | 8.0 | 0.00 | 0.35 | 0.00 | 83 | 1005.5 | |
| 20260505094543 | 54 | 0.0 | 11.0 | 0.00 | 0.35 | 0.00 | 82 | 1004.8 | |
| 20260505093041 | 54 | 0.0 | 9.0 | 0.00 | 0.35 | 0.00 | 83 | 1004.5 | |
| 20260505091539 | 54 | 0.0 | 9.0 | 0.00 | 0.35 | 0.00 | 85 | 1004.0 | |
| 20260505090037 | 54 | 0.0 | 9.0 | 0.00 | 0.35 | 0.00 | 89 | 1003.8 | |
| 20260505084534 | 54 | 0.0 | 7.0 | 0.00 | 0.35 | 0.00 | 91 | 1003.4 | |
| 20260505083032 | 54 | 0.0 | 6.0 | 0.00 | 0.35 | 0.00 | 93 | 1003.5 | |
| 20260505081532 | 55 | 0.0 | 6.0 | 0.00 | 0.35 | 0.00 | 93 | 1003.3 | |
| 20260505080028 | 55 | 0.0 | 4.0 | 0.00 | 0.35 | 0.00 | 93 | 1003.0 | |
| 20260505074526 | 55 | 0.0 | 3.0 | 0.00 | 0.35 | 0.00 | 93 | 1002.7 | |
| 20260505073035 | 55 | 0.0 | 3.0 | 0.00 | 0.35 | 0.00 | 93 | 1002.4 | |
| 20260505071523 | 55 | 0.0 | 7.0 | 0.00 | 0.35 | 0.00 | 93 | 1002.4 | |
| 20260505070021 | 55 | 0.0 | 5.0 | 0.00 | 0.35 | 0.00 | 93 | 1002.0 | |
| 20260505064520 | 55 | 0.0 | 7.0 | 0.00 | 0.35 | 0.00 | 93 | 1002.1 | |
| 20260505063017 | 55 | 0.0 | 4.0 | 0.00 | 0.35 | 0.00 | 93 | 1001.8 | |
| 20260505061523 | 56 | 0.0 | 7.0 | 0.00 | 0.35 | 0.00 | 92 | 1001.6 | |
| 20260505060014 | 56 | 0.0 | 6.0 | 0.00 | 0.35 | 0.00 | 92 | 1001.6 | |
| 20260505054513 | 56 | 0.0 | 9.0 | 0.00 | 0.35 | 0.00 | 92 | 1001.5 | |
| 20260505053026 | 56 | 0.0 | 7.0 | 0.00 | 0.35 | 0.00 | 92 | 1001.3 | |
| 20260505051526 | 56 | 0.0 | 8.0 | 0.01 | 0.35 | 0.00 | 92 | 1001.2 | |
| 20260505041508 | 58 | 0.0 | 16.0 | 0.04 | 0.34 | 0.34 | 91 | 1001.4 | |
| 20260505040006 | 58 | 0.0 | 18.0 | 0.05 | 0.34 | 0.34 | 91 | 1001.7 | |
| 20260505034504 | 58 | 0.0 | 4.0 | 0.05 | 0.34 | 0.34 | 92 | 1000.8 | |
| 20260505033005 | 58 | 0.0 | 7.0 | 0.06 | 0.33 | 0.33 | 91 | 1000.1 | |
| 20260505031503 | 58 | 0.0 | 13.0 | 0.08 | 0.30 | 0.30 | 91 | 1001.6 | |
| 20260505030002 | 58 | 0.0 | 5.0 | 0.09 | 0.28 | 0.28 | 90 | 1001.7 | |
| 20260505024501 | 58 | 0.0 | 9.0 | 0.24 | 0.28 | 0.28 | 89 | 1001.5 | |
| 20260505023006 | 58 | 0.0 | 16.0 | 0.27 | 0.27 | 0.27 | 89 | 1002.1 | |
| 20260505021502 | 58 | 0.0 | 18.0 | 0.22 | 0.22 | 0.22 | 86 | 1001.8 | |
| 20260505020000 | 60 | 0.0 | 21.0 | 0.19 | 0.19 | 0.19 | 81 | 1001.8 | |
| 20260505014609 | 67 | 0.0 | 24.0 | 0.07 | 0.07 | 0.07 | 67 | 1002.4 | |
| 20260505013058 | 71 | 0.0 | 19.0 | 0.00 | 0.00 | 0.00 | 56 | 1000.5 | |
| 20260505011557 | 72 | 0.0 | 20.0 | 0.00 | 0.00 | 0.00 | 57 | 999.5 | |
| 20260505010116 | 72 | 0.0 | 20.0 | 0.00 | 0.00 | 0.00 | 58 | 999.3 | |
| 20260505004556 | 73 | 0.0 | 19.0 | 0.00 | 0.00 | 0.00 | 58 | 998.8 | |
| 20260505003058 | 72 | 0.0 | 20.0 | 0.00 | 0.00 | 0.00 | 57 | 998.6 |